Flag for Jordan Weather past 2 weeks in Amman, Jordan

Now
100 °F

Duststorm.


Feels Like: 95 °F
Forecast: 83 / 99 °F
Wind: 10 mph from Southwest

Location: Amman Airport

Current Time: Aug 3, 2015 at 12:03:59 PM

Latest Report: Aug 3, 2015 at 11:00 AM


Visibility: 2 mi

Pressure: 29.92 "Hg (27.36 "Hg at 816m altitude)

Humidity: 10%

Dew point: 36 °F

Location of AmmanLocation

Historic Weather in Amman — Graph

°F

Amman temperature yesterday

Maximum temperature yesterday: 106 °F (at 3:00 PM)
Minimum temperature yesterday: 77 °F (at 6:00 AM)
Average temperature yesterday: 93 °F

Past Weeks' High & Low Weather Summary

 TemperatureHumidityPressure
High106 °F (Aug 2, 3:00 PM)69% (Jul 28, 6:00 AM)29.95 "Hg (Jul 28, 6:00 AM)
Low68 °F (Jul 21, 6:00 AM)9% (Jul 23, 3:00 PM)29.77 "Hg (Jul 21, 3:00 PM)
Average85 °F29%29.84 "Hg
* Reported Jul 19 11:00 AM — Aug 3 11:00 AM, Amman, Weather by CustomWeather, © 2015

Note: Actual official high and low records may vary slightly from our data, if they occured in-between our weather recording intervals... More about our weather records

Advertising

Amman weather history for previous 24 hours

 ConditionsComfort  
Time TempWeatherWind HumidityBarometerVisibility
11:00 AM
Mon, Aug 3
100 °FDuststorm.10 mph10%29.92 "Hg1 mi
10:00 AM97 °FDuststorm.6 mph13%29.92 "Hg1 mi
9:00 AM95 °FDuststorm.No wind15%29.92 "Hg1 mi
8:00 AM90 °FDuststorm.No wind22%29.92 "Hg1 mi
7:00 AM88 °FDuststorm.No wind22%29.89 "Hg2 mi
6:00 AM88 °FHaze.No wind24%29.89 "Hg2 mi
5:00 AM90 °FPassing clouds.5 mph20%29.89 "Hg3 mi
4:00 AM90 °FPassing clouds.No wind20%29.89 "Hg3 mi
3:00 AM91 °FDuststorm.8 mph18%29.92 "Hg2 mi
2:00 AM91 °FDuststorm.6 mph18%29.92 "Hg2 mi
1:00 AM90 °FPassing clouds.5 mph21%29.92 "Hg1 mi
12:00 AM91 °FDense fog.3 mph21%29.92 "Hg1 mi
11:00 PM
Sun, Aug 2
95 °FDense fog.5 mph15%29.92 "Hg1 mi
10:00 PM95 °FDuststorm.No wind16%29.89 "Hg1 mi
9:00 PM97 °FDense fog.3 mph13%29.89 "Hg1 mi
8:00 PM97 °FDuststorm.3 mph17%29.89 "Hg2 mi
7:00 PM97 °FDense fog.12 mph17%29.89 "Hg1 mi
6:00 PM99 °FDense fog.15 mph16%29.89 "Hg1 mi
5:00 PM104 °FScattered clouds.9 mph14%29.86 "Hg1 mi
4:05 PM104 °FSandstorm.23 mph13%29.86 "Hg0 mi
4:00 PM106 °FScattered clouds.7 mph13%29.89 "Hg3 mi
3:00 PM106 °FHaze.5 mph13%29.89 "Hg2 mi
2:00 PM104 °FHaze.7 mph13%29.89 "Hg2 mi
1:00 PM102 °FHaze.5 mph15%29.92 "Hg2 mi
12:00 PM100 °FHaze.7 mph17%29.92 "Hg2 mi
Weather by CustomWeather, © 2015

See weather overviewHow to use our weather pages